STARLINK-32742, 62605

Orbit data source: Space-Track

STARLINK-32742, 62605 is a payload satellite owned by SpaceX/Seattle (US) in LEO that was launched on Mon, 13 Jan 2025 UTC via an FALCON 9 launch vehicle from the Air Force Eastern Test Range (AFETR). Payload-class satellites include a variety of spacecraft equipped with specific instruments for various scientific and technological missions. These include communications satellites like Starlink; space stations such as the ISS; scientific satellites like the Hubble; Earth observation satellites from companies like Planet Labs, Umbra, and HawkEye 360; GPS; miniature CubeSats for education and research; and military/defense satellites.

Loading next visibility...
Identifier
62605, 2025-008U
Orbit
LEO
Last TLE update
12 hours ago
Origin
Manufacturer
SpaceX/Seattle
Mission
Operational Commercial Communications
Bus & Motor
STARLINK V2M, Unknown motor
Mass
730 kg wet, ~700 kg dry
Launch date (UTC)
2025-01-13 (6 months ago)
Launch vehicle
FALCON 9
Launch site
Air Force Eastern Test Range (AFETR)
Object type
Payload
Rocket body
Debris
Shape & HBR
Box + 2 Pan, 29 m
Radar Cross Section
33.884 m², Large (>1 m²)

Expand to show TLE details & history

TLE from 12 hours ago
0 STARLINK-32742
1 62605U 25008U   25187.41800323  .00027181  00000-0  99297-3 0  9996
2 62605  43.0022 228.4440 0002273 281.4185  78.6411 15.27600638 27957
Epoch: 2025-07-06T10:01Z
TLE epoch observation values (Epoch: 2025-07-06T10:01:55.479Z)
Latitude
-0.00002°
Longitude
153.32083°
Altitude
482.456 km
Speed
7.626 km/s
True Right ascension
15h 13m 46s
True Declination
0° 00' 00"
Sunlit
Object was in full shadow at epoch
Visualization orbit readout
Latitude
-23.22228°
Longitude
123.17326°
Altitude
487.231 km
Speed
7.623 km/s
Apparent Right ascension
16h 36m 30s
Apparent Declination
-58° 05' 59"
Sunlit
Object is in daylight
Visualization observer readout
Local Sidereal Time
10:26:06
Azimuth
140.296° SSE
Elevation
-34.273°
Doppler factor
1
Orbital elements
Apogee altitude
486.492 km
Perigee altitude
483.372 km
Semi-major axis
6,863.069 km
Eccentricity
0.00023
Inclination
43.0022°
RAAN
228.444°
Arg. of periapsis
281.4185°
True anomaly
Unknown
Mean anomaly
78.6411°
Eccentric anomaly
Unknown
Mean motion
3.81738 °/min
Orbital period
94.31 mins
BSTAR
0.00099297
Loading maneuver chart data...
Loading SW <> Apogee altitude chart data...
Loading historical data...
Loading historical data...
Loading historical data...
Loading historical data...
Loading historical data...
Loading historical data...
Loading historical data...

STARLINK-32742 Visibility forecast

Observer location: undefined°, undefined°

Span
Click to sort rows by Start time (UTC) header in descending order
Start Az.
Max El. time (UTC)
Max El. Az.
Max El.
End time (UTC)
End Az.
5 mins2025-07-07 06:40:58.208Z235.998° WSW2025-07-07 06:42:58.208Z173.513° S42.912°2025-07-07 06:45:58.208Z76.074° E
5 mins2025-07-07 08:19:58.208Z284.616° WNW2025-07-07 08:21:58.208Z342.766° N38.609°2025-07-07 08:24:58.208Z69.64° E
6 mins2025-07-07 09:58:58.208Z293.341° NW2025-07-07 10:00:58.208Z333.566° NNW41.321°2025-07-07 10:04:58.208Z96.333° ESE
5 mins2025-07-07 11:37:58.208Z267.615° W2025-07-07 11:39:58.208Z218.387° SW31.058°2025-07-07 11:42:58.208Z145.661° SSE
|